ARIANE 5 R/B, 45029

Orbit data source: Space-Track

ARIANE 5 R/B, 45029 is space debris in HEO originally from a launch on Thu, 16 Jan 2020 UTC launched from the French Guiana (FRGUI). Debris objects in space refer to the collection of defunct objects orbiting the Earth. Examples of debris include non-operational satellites, rocket bodies, and fragments generated from explosions, collisions, or faulty payload assembly.

Loading next visibility...
Identifier
45029, 2020-005D
Orbit
HEO
Country
Flag of FRFR
Related business
Manufacturer
ArianeGroup
Mission
Spacecraft
Bus & Motor
ESC-A, Unknown motor
Mass
~5,000 kg wet, ~5,000 kg dry
Launch date (UTC)
2020-01-16 (6 years ago)
Launch vehicle
Unknown
Launch site
French Guiana (FRGUI)
Object type
Payload
Rocket body
Debris
Shape & HBR
Cyl + 1 Nozzle, 3.5 m
Radar Cross Section
41.627 m², Large (>1 m²)

Expand to show TLE details & history
Last TLE update: 2 days ago

TLE from 2 days ago
0 ARIANE 5 R/B
1 45029U 20005D   26171.29676295  .00033030  00000-0  23365-2 0  9990
2 45029   5.6737  96.2040 6420032 104.0883 330.4719  3.47076573 51018
Epoch: 2026-06-20T07:07Z
TLE epoch observation values (Epoch: 2026-06-20T07:07:20.318Z)
Latitude
0.00002°
Longitude
80.65598°
Altitude
6,505.262 km
Speed
6.344 km/s
True Right ascension
06h 24m 00s
True Declination
0° 00' 00"
Sunlit
Object was in daylight at epoch
Visualization orbit readout
Latitude
Unknown
Longitude
Unknown
Altitude
Unknown
Speed
Unknown
Apparent Right ascension
Unknown
Apparent Declination
Unknown
Sunlit
N/A
Visualization observer readout
Local Sidereal Time
21:30:09
Azimuth
Unknown
Elevation
Unknown
Doppler factor
Unknown
Orbital elements
Apogee altitude
23,887.448 km
Perigee altitude
220.5 km
Semi-major axis
18,432.111 km
Eccentricity
0.642
Inclination
5.6737°
RAAN
96.204°
Arg. of periapsis
104.0883°
True anomaly
255.69158°
Mean anomaly
330.4719°
Eccentric anomaly
297.99068°
Mean motion
0.86732 °/min
Orbital period
415.07 mins
BSTAR
0.0023365
Loading maneuver chart data...
Computing Atmospheric mass density...
Loading historical data...
Loading historical data...
Loading historical data...
Loading historical data...
Loading historical data...
Loading historical data...
Loading historical data...
Other satellites on launch #5 in the year 2020 (2020-01-16 UTC)

Documentation

Showing up to 5 results
|